Regional Weather Roundup
Issued by NWS

Home | Current Version | Previous Version | Graphics & Text | Print | Product List | Glossary On
Versions: 1 2 3 4 5 6 7 8 9 10 11 12 13 14 15 16 17 18 19 20 21 22 23 24 25 26 27 28
000
ASUS45 KSLC 170710
RWRUT

UTAH REGIONAL WEATHER ROUNDUP
NATIONAL WEATHER SERVICE SALT LAKE CITY UT
100 AM MDT THU APR 17 2014

UTZ001>011-023>025-170800-

NORTHERN UTAH

CITY           SKY/WX    TMP DP  RH WIND       PRES   REMARKS
HILL AFB       CLEAR     42  14  32 E13       30.04R
LOGAN          CLEAR     36  24  62 SW5       30.03S WCI  32
OGDEN          CLEAR     42  18  37 S8        30.03R
PROVO AIRPORT  CLEAR     41  28  60 CALM      30.05S
SALT LAKE CITY CLEAR     42  17  36 SE8       30.03R
VERNAL         PTCLDY    41  15  35 CALM      30.02R
WENDOVER       CLEAR     45  19  36 NE8       30.01S
HEBER CITY     CLEAR     32  18  55 E3        30.06S
WEST JORDAN    CLEAR     39  19  45 CALM      30.04S

$$

UTZ012>022-026-027-170800-

SOUTHERN UTAH

CITY           SKY/WX    TMP DP  RH WIND       PRES   REMARKS
BRYCE CANYON   CLEAR     24  18  77 W6        30.10R WCI  17
CEDAR CITY     PTCLDY    40  20  44 NE5       30.01S
MILFORD        PTCLDY    37  18  46 CALM      30.01S
MOAB/CYNLANDS  CLEAR     42  20  41 CALM      29.96R
PRICE          CLEAR     44  14  29 NW8       30.03R
ST GEORGE      SUNNY     66  25  20 NE16      29.91R
KANAB            N/A     46  23  39 NW12      30.04R

$$

REGIONAL REPORTS     COLORADO/ARIZONA

CITY           SKY/WX    TMP DP  RH WIND       PRES   REMARKS
CRAIG, CO      PTCLDY    29  20  69 CALM      30.04R
GRAND JUNCTION CLEAR     36  24  62 SE5       29.98R WCI  32
RIFLE          CLOUDY    36  24  62 E3        30.02R
MONTROSE       CLEAR     39  26  59 SE10      30.04R WCI  32
CORTEZ         CLEAR     29  21  72 E7        30.03R WCI  22
PAGE, AZ       NOT AVBL
GRAND CANYON   CLEAR     31  15  52 NE6       30.06S WCI  25
KINGMAN        CLEAR     55  13  18 E5        29.88R
FLAGSTAFF      CLEAR     34  14  43 CALM      30.08R

$$

REGIONAL REPORTS    NEVADA/IDAHO/WYOMING

CITY           SKY/WX    TMP DP  RH WIND       PRES   REMARKS
LAS VEGAS, NV  PTCLDY    73  22  14 SW3       29.76R
ELY            PTCLDY    35  23  61 S9        30.07R WCI  28
ELKO           PTCLDY    39  28  64 CALM      30.02R
POCATELLO, ID  CLEAR     38  14  37 S7        30.02R WCI  33
BURLEY         CLEAR     37  21  52 SW10      30.00S WCI  30
EVANSTON, WY   CLEAR     34  14  43 S3        30.07R
ROCK SPRINGS   PTCLDY    35  10  35 W5        30.06R WCI  31

$$



USA.gov is the U.S. government's official web portal to all federal, state and local government web resources and services.